Location: Eyeline Observatory
(43.2182°N, 78.8632°W)
Time: 03:06:41
(UTC-05:00)

N. Korean satellite - Pass Details

Date: 12 October 2017
Orbit: 461 x 513 km, 97.2° (Epoch: 16 December)

Event Time Altitude Azimuth Distance (km) Brightness Sun altitude
Rises 20:12:34 0° 203° (SSW) 2,553 10.4 -18.2°
Reaches altitude 10° 20:15:12 10° 225° (SW) 1,667 9.8 -18.7°
Maximum altitude 20:17:36 17° 267° (W) 1,291 9.7 -19.1°
Drops below altitude 10° 20:19:59 10° 309° (NW) 1,656 10.1 -19.5°
Sets 20:22:36 0° 331° (NNW) 2,530 10.8 -20.0°
